Погода в Кличеве

Погода в Кличеве : погода сейчас, прогноз погоды и архив. Всё, что Вы хотите узнать о погоде в Кличеве!

Хотите узнать прогноз погоды в Кличеве? Тогда Вам сюда: Погода в Кличеве

Поиск расширенной информации на нашем сайте:

Другие новости

Новости СМИ2

Главная страница сайта

Новости сайта

03.07.2017

Напоминаем, что на нашем специализированном сайте Метеоцентр.Азия вы можете получить высокодетализированные автоматические прогнозы погоды по пунктам России, СНГ и мира в авиационном формате (включающие направление и скорость ветра, видимость, явления погоды, количество и форму облачности, нижнюю и верхнюю границу облачности).


Погода в Кличеве - сегодня

Время (UTC), дата Ветер
(°,м/с) 
Видим.   Явления Облачность Т
(°С)
Тd
(°С)
f(%) Тe
(°С)
Pmin
(гПа)
dP
(гПа)
Po
(мм)
O2
(г/м3)
Тmin Tmax R s Состояние
почвы
15 19.09.18 240 (ЮЗ) 20000 м    ясно 
+24.5 +13.4 50 +31  1017.7  -0.9  750  275           
18 19.09.18 тихо ()   10 км    ясно 
+16.1 +13.4 84 +22  1018.3  750  283    +25.4       
21 19.09.18 тихо ()   10 км    ясно 
+12.5 +10.7 89 +15  1018.4  -0.2  750  287           
00 20.09.18 тихо ()   4000 м  дымка  ясно 
+13 +12.1 94 +17  1018.8  0.4  750  286           
06 20.09.18 220 (ЮЗ) 4000 м  дымка  ясно 
+15.2 +14.5 96 +25  1019.4  0.4  751  284  +10.3         
09 20.09.18 250 (З) 20000 м    ясно 
+24 +16 61 +34  1019.2  0.4  751  275           
12 20.09.18 260 (З) 20000 м    3/3 600 м 
[Cu hum]
+26.6 +15 49 +35  1018.3  -0.7  751  273           
15 20.09.18 260 (З) 20000 м    ясно 
+25.8 +15.2 52 +35  1018  -0.4  750  273           
18 20.09.18 тихо ()   10 км    ясно 
+17.8 +15.4 86 +27  1018.9  0.4  751  281    +27.3       
21 20.09.18 тихо ()   4000 м  дымка  ясно 
+13.4 +12.6 95 +18  1019.3  751  286           
00 21.09.18 тихо ()   4000 м  дымка  ясно 
+12.5 +12.2 98 +17  1019.5  0.2  751  287           
06 21.09.18 210 (ЮЗ) 4000 м  дымка  ясно 
+15.7 +15.4 98 +26  1020  0.3  751  283  +9.6         
09 21.09.18 200 (Ю) 20000 м    ясно 
+24.8 +12.7 47 +30  1019.4  751  275           
12 21.09.18 190 (Ю) 20000 м    ясно 
+27.3 +10.5 35 +29  1017.8  -1.3  750  273           
15 21.09.18 180 (Ю) 20000 м    ясно 
+24.9 +9.2 37 +25  1016.7  -1.3  749  275           
18 21.09.18 тихо ()   10 км    ясно 
+17.8 +11.4 66 +21  1016.3  -0.9  749  281    +27.6       
21 21.09.18 170 (Ю) 10 км    ясно 
+16.9 +12 73 +22  1015.2  -1.1  748  281           
00 22.09.18 170 (Ю) 10 км    ясно 
+15 +11.6 80 +19  1014  -1.3  747  283           
09 22.09.18 200 (Ю) 20000 м    8/0 средняя 
[Ac trans]
+22.5 +11.6 50 +26  1009.7  -0.5  744  275           
12 22.09.18 290 (З) 7-11{15}  20000 м    8/3 600 м средняя 
[Sc|Ac As]
+16.6 +9.5 63 +17  1012.8  2.6  746  282           
18 22.09.18 180 (Ю) 1{11}  4000 м  слаб. ливневой дождь  10/10 400 м кучево-дожд. 
[Cb cap]
+9.7 +8.8 94 +11  1015.2  0.1  747  289    +24.1     
00 23.09.18 240 (ЮЗ) 4000 м  дымка{ливн. осадки}  9/9 800 м 
[Sc]
+10.1 +9.5 96 +11  1014.2  -0.2  747  288           
06 23.09.18 240 (ЮЗ) 4000 м  дымка  9/9 900 м 
[Sc]
+8.7 +8.3 97 +8  1013.8  0.2  746  290  +6.9    0.8     
09 23.09.18 220 (ЮЗ) 20000 м    8/8 900 м 
[Sc]
+13.6 +9.6 77 +14  1013.2  -0.2  746  285           
12 23.09.18 240 (ЮЗ) 4{10}  20000 м    8/8 900 м 
[Sc]
+14.9 +7 59 +15  1012.5  -0.6  746  284           
Время (UTC), дата Ветер
(°,м/с) 
Видим.   Явления Облачность Т
(°С)
Тd
(°С)
f(%) Тe
(°С)
Pmin
(гПа)
dP
(гПа)
Po
(мм)
O2
(г/м3)
Тmin Tmax R s Состояние
почвы

Для получения пояснительной информации подведите курсор к названию столбца.

ПОГОДА в Кличеве - архив

Всё, что Вы хотите узнать о погоде в Кличеве - удобно и подробно!

Выберите нужную дату (начиная с 1 января 2015* года) и нажмите кнопку "Найти".
Будут отображены архивные сводки погоды по пункту Кличев, начиная с указанной даты.


Отображать данные в формате CSV (для использования в таблицах Excel)


Внимание! Наш архив погоды предназначен исключительно для личного некоммерческого использования в познавательных целях. Если Вам необходимы официальные справки о состоянии погоды (для производственных, юридических, коммерческих и т.п. целей), обращайтесь в органы Росгидромета.

*Примечание: данная дата относится к архиву по метеостанциям СССР (Россия, СНГ, Балтия).
Архив по метеостанциям Зарубежной Европы и Азии (кроме Китая) хранится 10 дней, по другим регионам земного шара (Китай, Африка, Америка, Австралия, Океания) - 1 день.

Кличев - район местоположения метеостанции


Название, широта, долгота, высота метеостанции:
Кличев 53.5°ш. 29.3°д. 155 м над ур. моря [Беларусь]

Дополнительная информация

В oтличие oт бoльшинства пoгoдных сайтoв мы публикуем пoдрoбную метеoинфoрмацию в детальнoм прoфессиoнальнoм фoрмате.

Характеристики температуры и влажнoсти вoздуха измеряются на высoте 2 м в тени вдали oт зданий и деревьев.
Скoрoсть ветра измеряется на высoте 10 м (на урoвне рoста челoвека скoрoсть ветра ниже в 1.5-2 раза). Если метеoстанция нахoдится в гoрoде или в лесу, тo скoрoсть ветра занижена на 2-4 м/с пo сравнению с oткрытым местoм. Скoрoсть ветра над акватoриями крупных рек и oзёр, а также на вершинах хoлмoв на 2-5 м/с выше, чем в oбычных услoвиях.
Атмoсфернoе давление в разных тoчках местнoсти мoжет значительнo oтличаться oт давления на метеoстанции, в зависимoсти oт услoвий рельефа (при пoдъёме на 10 м давление пoнижается примернo на 1 мм рт.ст.).